| time (UTC) | temp F | wind direction | speed knots | gust knots | rain 1hr in | rain 24hr in | rain mn in | humidity % | barometer mb |
| 20260507095457 | 48 | 315 | 0.0 | 0.0 | 0.00 | 0.04 | 0.04 | 98 | 1004.6 |
| 20260507094954 | 48 | 313 | 0.0 | 0.0 | 0.00 | 0.04 | 0.04 | 98 | 1005.0 |
| 20260507094450 | 48 | 313 | 0.0 | 0.0 | 0.00 | 0.04 | 0.04 | 99 | 1004.7 |
| 20260507093947 | 47 | 322 | 0.0 | 0.0 | 0.00 | 0.04 | 0.04 | 99 | 1004.1 |
| 20260507093445 | 47 | 314 | 0.0 | 0.0 | 0.00 | 0.04 | 0.04 | 99 | 1004.0 |
| 20260507092943 | 47 | 313 | 0.0 | 0.0 | 0.00 | 0.04 | 0.04 | 99 | 1004.6 |
| 20260507092439 | 47 | 315 | 0.0 | 0.0 | 0.00 | 0.04 | 0.04 | 99 | 1004.5 |
| 20260507091936 | 47 | 336 | 0.0 | 0.0 | 0.00 | 0.04 | 0.04 | 99 | 1004.0 |
| 20260507091432 | 47 | 312 | 0.0 | 0.0 | 0.00 | 0.04 | 0.04 | 99 | 1004.0 |
| 20260507090928 | 47 | 314 | 0.0 | 0.9 | 0.00 | 0.04 | 0.04 | 99 | 1003.8 |
| 20260507090425 | 48 | 315 | 0.0 | 0.0 | 0.00 | 0.04 | 0.04 | 99 | 1004.2 |
| 20260507085921 | 48 | 314 | 0.0 | 0.0 | 0.00 | 0.04 | 0.04 | 99 | 1004.1 |
| 20260507085418 | 48 | 313 | 0.0 | 0.0 | 0.00 | 0.04 | 0.04 | 99 | 1003.9 |
| 20260507084915 | 48 | 316 | 0.0 | 0.0 | 0.00 | 0.04 | 0.04 | 99 | 1004.1 |
| 20260507084412 | 48 | 314 | 0.0 | 0.0 | 0.00 | 0.04 | 0.04 | 99 | 1003.9 |
| 20260507083909 | 48 | 314 | 0.0 | 0.0 | 0.00 | 0.04 | 0.04 | 99 | 1004.3 |
| 20260507083405 | 48 | 312 | 0.0 | 0.0 | 0.00 | 0.04 | 0.04 | 99 | 1004.4 |
| 20260507082902 | 48 | 324 | 0.0 | 0.0 | 0.00 | 0.04 | 0.04 | 99 | 1004.7 |
| 20260507082357 | 48 | 311 | 0.0 | 0.0 | 0.00 | 0.04 | 0.04 | 99 | 1004.3 |
| 20260507081855 | 48 | 313 | 0.0 | 0.0 | 0.00 | 0.04 | 0.04 | 99 | 1004.0 |
| 20260507081351 | 48 | 312 | 0.0 | 0.0 | 0.00 | 0.04 | 0.04 | 99 | 1003.7 |
| 20260507080848 | 48 | 314 | 0.0 | 0.0 | 0.00 | 0.04 | 0.04 | 99 | 1003.7 |
| 20260507080344 | 48 | 313 | 0.0 | 0.0 | 0.00 | 0.04 | 0.04 | 99 | 1003.4 |
| 20260507075839 | 48 | 315 | 0.0 | 0.0 | 0.00 | 0.04 | 0.04 | 99 | 1003.7 |
| 20260507075336 | 49 | 312 | 0.0 | 0.0 | 0.00 | 0.04 | 0.04 | 99 | 1003.5 |
| 20260507074832 | 49 | 314 | 0.0 | 0.0 | 0.00 | 0.04 | 0.04 | 99 | 1003.8 |
| 20260507074330 | 49 | 315 | 0.0 | 0.0 | 0.00 | 0.04 | 0.04 | 99 | 1004.1 |
| 20260507073827 | 49 | 310 | 0.0 | 0.0 | 0.00 | 0.04 | 0.04 | 99 | 1003.9 |
| 20260507073324 | 49 | 313 | 0.0 | 0.0 | 0.00 | 0.04 | 0.04 | 99 | 1003.8 |
| 20260507072821 | 49 | 314 | 0.0 | 0.0 | 0.00 | 0.04 | 0.04 | 99 | 1003.8 |
| 20260507072318 | 49 | 312 | 0.0 | 0.0 | 0.00 | 0.04 | 0.04 | 99 | 1003.6 |
| 20260507071815 | 49 | 312 | 0.0 | 0.0 | 0.00 | 0.04 | 0.04 | 99 | 1003.4 |
| 20260507071312 | 50 | 312 | 0.0 | 0.0 | 0.00 | 0.04 | 0.04 | 99 | 1003.3 |
| 20260507070809 | 50 | 312 | 0.0 | 0.0 | 0.00 | 0.04 | 0.04 | 99 | 1003.2 |
| 20260507070306 | 50 | 309 | 0.0 | 0.0 | 0.00 | 0.04 | 0.04 | 99 | 1003.6 |
| 20260507065802 | 50 | 313 | 0.0 | 0.0 | 0.00 | 0.04 | 0.04 | 99 | 1003.4 |
| 20260507065259 | 50 | 313 | 0.0 | 0.0 | 0.00 | 0.04 | 0.04 | 99 | 1003.1 |
| 20260507064756 | 50 | 313 | 0.0 | 0.0 | 0.00 | 0.04 | 0.04 | 99 | 1003.3 |
| 20260507064255 | 50 | 313 | 0.0 | 0.0 | 0.00 | 0.04 | 0.04 | 99 | 1003.2 |
| 20260507063753 | 50 | 313 | 0.0 | 0.0 | 0.00 | 0.04 | 0.04 | 99 | 1003.3 |
| 20260507063249 | 50 | 311 | 0.0 | 0.0 | 0.00 | 0.04 | 0.04 | 99 | 1003.2 |
| 20260507062746 | 50 | 313 | 0.0 | 0.0 | 0.00 | 0.04 | 0.04 | 99 | 1003.1 |
| 20260507062243 | 50 | 313 | 0.0 | 0.0 | 0.00 | 0.04 | 0.04 | 99 | 1003.1 |
| 20260507061741 | 50 | 313 | 0.0 | 0.0 | 0.00 | 0.04 | 0.04 | 99 | 1003.1 |
| 20260507061239 | 50 | 313 | 0.0 | 0.0 | 0.00 | 0.04 | 0.04 | 99 | 1003.1 |
| 20260507060737 | 51 | 312 | 0.0 | 0.9 | 0.00 | 0.04 | 0.04 | 99 | 1003.0 |
| 20260507060233 | 51 | 309 | 0.0 | 0.0 | 0.00 | 0.04 | 0.04 | 99 | 1003.0 |
| 20260507055729 | 51 | 314 | 0.0 | 0.0 | 0.00 | 0.04 | 0.04 | 99 | 1003.1 |
| 20260507055225 | 51 | 314 | 0.0 | 0.0 | 0.00 | 0.04 | 0.04 | 99 | 1003.2 |
| 20260507054721 | 51 | 320 | 0.0 | 0.0 | 0.00 | 0.04 | 0.04 | 99 | 1002.7 |
| 20260507054218 | 51 | 315 | 0.0 | 0.0 | 0.07 | 0.04 | 0.04 | 99 | 1002.8 |
| 20260507053716 | 51 | 307 | 0.0 | 0.0 | 0.07 | 0.04 | 0.04 | 99 | 1002.7 |
| 20260507053213 | 52 | 300 | 0.0 | 0.0 | 0.00 | 0.03 | 0.03 | 99 | 1002.7 |
| 20260507052712 | 52 | 315 | 0.0 | 0.9 | 0.00 | 0.03 | 0.03 | 99 | 1002.8 |
| 20260507052208 | 53 | 312 | 0.0 | 0.0 | 0.00 | 0.03 | 0.03 | 99 | 1002.8 |
| 20260507051706 | 53 | 311 | 0.0 | 0.0 | 0.00 | 0.03 | 0.03 | 99 | 1002.8 |
| 20260507051202 | 53 | 313 | 0.0 | 0.0 | 0.05 | 0.03 | 0.03 | 99 | 1002.7 |
| 20260507050659 | 53 | 308 | 0.0 | 0.0 | 0.05 | 0.03 | 0.03 | 99 | 1002.6 |
| 20260507050156 | 53 | 310 | 0.0 | 0.0 | 0.00 | 0.02 | 0.02 | 99 | 1002.7 |
| 20260507045653 | 54 | 307 | 0.9 | 0.9 | 0.00 | 0.02 | 0.02 | 99 | 1002.3 |
| 20260507045149 | 54 | 309 | 0.0 | 0.0 | 0.00 | 0.02 | 0.02 | 99 | 1002.2 |
| 20260507044646 | 53 | 309 | 0.0 | 0.0 | 0.00 | 0.02 | 0.02 | 99 | 1002.3 |
| 20260507044143 | 53 | 309 | 0.0 | 0.9 | 0.00 | 0.02 | 0.02 | 99 | 1002.1 |
| 20260507043639 | 53 | 312 | 0.0 | 0.0 | 0.00 | 0.02 | 0.02 | 99 | 1002.2 |
| 20260507043136 | 53 | 308 | 0.0 | 0.0 | 0.00 | 0.02 | 0.02 | 99 | 1002.2 |
| 20260507042633 | 54 | 308 | 0.0 | 0.0 | 0.07 | 0.02 | 0.02 | 99 | 1001.7 |
| 20260507042128 | 53 | 308 | 0.0 | 0.0 | 0.14 | 0.02 | 0.02 | 99 | 1001.8 |
| 20260507041625 | 53 | 312 | 0.0 | 0.0 | 0.07 | 0.01 | 0.01 | 99 | 1001.6 |
| 20260507041121 | 53 | 312 | 0.0 | 0.0 | 0.00 | 0.00 | 0.00 | 99 | 1002.2 |
| 20260507040619 | 53 | 313 | 0.0 | 0.0 | 0.00 | 0.00 | 0.00 | 99 | 1002.4 |
| 20260507040115 | 53 | 312 | 0.0 | 0.0 | 0.12 | 0.00 | 0.00 | 99 | 1002.3 |
| 20260507035611 | 53 | 310 | 0.0 | 0.0 | 0.12 | 0.21 | 0.21 | 99 | 1002.2 |
| 20260507035107 | 53 | 335 | 0.9 | 1.7 | 0.00 | 0.19 | 0.19 | 99 | 1002.2 |
| 20260507034605 | 53 | 348 | 1.7 | 1.7 | 0.00 | 0.19 | 0.19 | 99 | 1002.2 |
| 20260507034102 | 53 | 301 | 0.0 | 0.9 | 0.00 | 0.19 | 0.19 | 99 | 1001.8 |
| 20260507033600 | 53 | 334 | 0.0 | 0.9 | 0.05 | 0.19 | 0.19 | 99 | 1002.0 |
| 20260507033056 | 53 | 318 | 0.9 | 1.7 | 0.05 | 0.19 | 0.19 | 99 | 1002.1 |
| 20260507032554 | 53 | 329 | 0.9 | 0.9 | 0.00 | 0.18 | 0.18 | 99 | 1001.9 |
| 20260507032050 | 52 | 313 | 0.0 | 0.0 | 0.00 | 0.18 | 0.18 | 99 | 1001.8 |
| 20260507031547 | 52 | 328 | 0.0 | 0.9 | 0.00 | 0.18 | 0.18 | 99 | 1002.0 |
| 20260507031044 | 52 | 313 | 0.0 | 0.0 | 0.00 | 0.18 | 0.18 | 99 | 1001.9 |
| 20260507030540 | 52 | 314 | 0.9 | 0.9 | 0.00 | 0.18 | 0.18 | 99 | 1001.6 |
| 20260507030038 | 52 | 313 | 0.9 | 0.9 | 0.00 | 0.18 | 0.18 | 99 | 1001.9 |
| 20260507025535 | 52 | 317 | 0.0 | 0.9 | 0.00 | 0.18 | 0.18 | 99 | 1001.7 |
| 20260507025032 | 52 | 338 | 1.7 | 1.7 | 0.00 | 0.18 | 0.18 | 99 | 1001.7 |
| 20260507024530 | 52 | 327 | 1.7 | 2.6 | 0.00 | 0.18 | 0.18 | 99 | 1002.1 |
| 20260507024027 | 52 | 315 | 0.0 | 0.0 | 0.00 | 0.18 | 0.18 | 99 | 1002.0 |
| 20260507023522 | 52 | 331 | 0.9 | 0.9 | 0.00 | 0.18 | 0.18 | 99 | 1002.1 |
| 20260507023021 | 52 | 333 | 1.7 | 1.7 | 0.00 | 0.18 | 0.18 | 99 | 1001.9 |
| 20260507022517 | 52 | 315 | 2.6 | 2.6 | 0.00 | 0.18 | 0.18 | 99 | 1002.2 |
| 20260507022012 | 52 | 298 | 1.7 | 1.7 | 0.00 | 0.18 | 0.18 | 99 | 1002.2 |
| 20260507021508 | 51 | 3 | 2.6 | 4.3 | 0.00 | 0.18 | 0.18 | 99 | 1002.3 |
| 20260507021005 | 51 | 294 | 3.5 | 6.1 | 0.00 | 0.18 | 0.18 | 99 | 1002.5 |
| 20260507020503 | 51 | 325 | 2.6 | 4.3 | 0.00 | 0.18 | 0.18 | 99 | 1002.3 |
| 20260507015959 | 51 | 18 | 2.6 | 2.6 | 0.00 | 0.18 | 0.18 | 99 | 1002.5 |
| 20260507015458 | 51 | 22 | 1.7 | 1.7 | 0.00 | 0.18 | 0.18 | 99 | 1002.2 |
| 20260507014955 | 51 | 341 | 2.6 | 4.3 | 0.00 | 0.18 | 0.18 | 99 | 1002.4 |
| 20260507014451 | 51 | 182 | 4.3 | 6.1 | 0.00 | 0.18 | 0.18 | 99 | 1002.6 |
| 20260507013947 | 51 | 20 | 3.5 | 6.1 | 0.00 | 0.18 | 0.18 | 99 | 1002.8 |
| 20260507013444 | 51 | 29 | 3.5 | 4.3 | 0.00 | 0.18 | 0.18 | 99 | 1002.6 |
| 20260507012941 | 51 | 330 | 0.0 | 0.0 | 0.00 | 0.18 | 0.18 | 99 | 1002.7 |
| 20260507012438 | 51 | 37 | 2.6 | 5.2 | 0.07 | 0.18 | 0.18 | 99 | 1002.9 |
| 20260507011935 | 51 | 315 | 3.5 | 4.3 | 0.07 | 0.18 | 0.18 | 99 | 1002.6 |
| 20260507011432 | 51 | 339 | 1.7 | 1.7 | 0.07 | 0.18 | 0.18 | 99 | 1002.7 |
| 20260507010932 | 51 | 291 | 4.3 | 5.2 | 0.00 | 0.17 | 0.17 | 99 | 1002.9 |
| 20260507010427 | 51 | 210 | 4.3 | 7.0 | 0.00 | 0.17 | 0.17 | 99 | 1002.9 |
| 20260507005924 | 51 | 316 | 1.7 | 2.6 | 0.00 | 0.17 | 0.17 | 99 | 1002.8 |
| 20260507005421 | 51 | 335 | 0.9 | 1.7 | 0.00 | 0.17 | 0.17 | 99 | 1002.7 |
| 20260507004918 | 51 | 343 | 2.6 | 2.6 | 0.00 | 0.17 | 0.17 | 99 | 1002.8 |
| 20260507004414 | 51 | 30 | 3.5 | 6.1 | 0.00 | 0.17 | 0.17 | 99 | 1003.0 |
| 20260507003912 | 51 | 317 | 0.9 | 1.7 | 0.00 | 0.17 | 0.17 | 99 | 1002.7 |
| 20260507003407 | 51 | 33 | 3.5 | 4.3 | 0.00 | 0.17 | 0.17 | 99 | 1003.0 |
| 20260507002903 | 51 | 325 | 3.5 | 4.3 | 0.00 | 0.17 | 0.17 | 99 | 1003.0 |
| 20260507002359 | 51 | 18 | 0.9 | 1.7 | 0.00 | 0.17 | 0.17 | 99 | 1003.0 |
| 20260507001856 | 51 | 331 | 0.0 | 0.0 | 0.00 | 0.17 | 0.17 | 99 | 1002.9 |
| 20260507001353 | 51 | 335 | 0.0 | 0.0 | 0.00 | 0.17 | 0.17 | 99 | 1003.3 |
| 20260507000850 | 51 | 311 | 1.7 | 1.7 | 0.00 | 0.17 | 0.17 | 99 | 1002.9 |
| 20260507000345 | 51 | 339 | 1.7 | 1.7 | 0.00 | 0.17 | 0.17 | 99 | 1003.0 |
| 20260506235842 | 51 | 323 | 0.9 | 1.7 | 0.00 | 0.17 | 0.17 | 99 | 1003.1 |
| 20260506235339 | 51 | 28 | 3.5 | 5.2 | 0.00 | 0.17 | 0.17 | 99 | 1003.0 |
| 20260506234835 | 51 | 350 | 2.6 | 4.3 | 0.00 | 0.17 | 0.17 | 99 | 1003.1 |
| 20260506234333 | 51 | 332 | 0.9 | 0.9 | 0.00 | 0.17 | 0.17 | 99 | 1003.1 |
| 20260506233830 | 51 | 66 | 3.5 | 7.8 | 0.00 | 0.17 | 0.17 | 99 | 1003.1 |
| 20260506233325 | 51 | 31 | 2.6 | 4.3 | 0.00 | 0.17 | 0.17 | 99 | 1003.0 |
| 20260506232823 | 51 | 318 | 1.7 | 1.7 | 0.00 | 0.17 | 0.17 | 99 | 1003.0 |
| 20260506232318 | 51 | 295 | 3.5 | 6.1 | 0.00 | 0.17 | 0.17 | 99 | 1003.0 |
| 20260506231815 | 51 | 9 | 3.5 | 4.3 | 0.00 | 0.17 | 0.17 | 99 | 1003.0 |
| 20260506231313 | 51 | 56 | 0.9 | 4.3 | 0.00 | 0.17 | 0.17 | 99 | 1003.2 |
| 20260506230810 | 51 | 355 | 2.6 | 2.6 | 0.00 | 0.17 | 0.17 | 99 | 1003.3 |
| 20260506230307 | 51 | 359 | 2.6 | 5.2 | 0.00 | 0.17 | 0.17 | 99 | 1003.1 |
| 20260506225803 | 51 | 23 | 1.7 | 2.6 | 0.00 | 0.17 | 0.17 | 99 | 1003.3 |
| 20260506225300 | 51 | 64 | 3.5 | 5.2 | 0.00 | 0.17 | 0.17 | 99 | 1003.1 |
| 20260506224756 | 51 | 314 | 1.7 | 2.6 | 0.00 | 0.17 | 0.17 | 99 | 1003.2 |
| 20260506224254 | 51 | 329 | 2.6 | 4.3 | 0.00 | 0.17 | 0.17 | 99 | 1003.3 |
| 20260506223749 | 51 | 30 | 2.6 | 4.3 | 0.00 | 0.17 | 0.17 | 99 | 1003.3 |
| 20260506223240 | 52 | 319 | 0.9 | 0.9 | 0.00 | 0.17 | 0.17 | 99 | 1003.3 |
| 20260506222737 | 52 | 356 | 0.9 | 1.7 | 0.05 | 0.17 | 0.17 | 99 | 1003.5 |
| 20260506222233 | 52 | 47 | 3.5 | 7.0 | 0.05 | 0.17 | 0.17 | 99 | 1003.5 |
| 20260506221731 | 52 | 343 | 1.7 | 1.7 | 0.00 | 0.16 | 0.16 | 99 | 1003.4 |
| 20260506221229 | 52 | 323 | 1.7 | 2.6 | 0.07 | 0.16 | 0.16 | 99 | 1003.2 |
| 20260506220726 | 52 | 315 | 0.9 | 1.7 | 0.07 | 0.16 | 0.16 | 99 | 1003.5 |
| 20260506220220 | 52 | 276 | 2.6 | 4.3 | 0.00 | 0.15 | 0.15 | 99 | 1003.5 |
| 20260506215717 | 52 | 3 | 2.6 | 2.6 | 0.05 | 0.15 | 0.15 | 99 | 1003.7 |
| 20260506215213 | 52 | 1 | 1.7 | 2.6 | 0.17 | 0.15 | 0.15 | 99 | 1003.8 |
| 20260506214710 | 52 | 285 | 4.3 | 5.2 | 0.12 | 0.14 | 0.14 | 99 | 1003.8 |
| 20260506214207 | 53 | 2 | 2.6 | 4.3 | 0.12 | 0.13 | 0.13 | 99 | 1003.8 |
| 20260506213705 | 53 | 38 | 4.3 | 6.1 | 0.12 | 0.12 | 0.12 | 99 | 1003.7 |
| 20260506213203 | 52 | 333 | 0.9 | 1.7 | 0.05 | 0.11 | 0.11 | 99 | 1003.7 |
| 20260506212659 | 52 | 4 | 2.6 | 4.3 | 0.05 | 0.11 | 0.11 | 99 | 1003.9 |
| 20260506212155 | 52 | 336 | 1.7 | 2.6 | 0.07 | 0.10 | 0.10 | 99 | 1003.8 |
| 20260506211650 | 52 | 293 | 2.6 | 2.6 | 0.12 | 0.09 | 0.09 | 99 | 1004.2 |
| 20260506211147 | 53 | 339 | 2.6 | 4.3 | 0.12 | 0.09 | 0.09 | 99 | 1003.9 |
| 20260506210644 | 53 | 357 | 2.6 | 4.3 | 0.07 | 0.07 | 0.07 | 99 | 1004.0 |
| 20260506210141 | 53 | 329 | 2.6 | 4.3 | 0.07 | 0.07 | 0.07 | 99 | 1004.0 |
| 20260506205638 | 53 | 327 | 0.0 | 0.9 | 0.00 | 0.06 | 0.06 | 99 | 1004.0 |
| 20260506205132 | 53 | 52 | 4.3 | 5.2 | 0.00 | 0.06 | 0.06 | 99 | 1003.9 |
| 20260506204631 | 53 | 350 | 1.7 | 2.6 | 0.05 | 0.06 | 0.06 | 99 | 1004.2 |
| 20260506204127 | 53 | 44 | 2.6 | 4.3 | 0.00 | 0.05 | 0.05 | 98 | 1004.1 |
| 20260506203626 | 54 | 338 | 0.9 | 1.7 | 0.00 | 0.05 | 0.05 | 98 | 1003.9 |
| 20260506203122 | 54 | 10 | 0.9 | 1.7 | 0.00 | 0.05 | 0.05 | 98 | 1004.2 |
| 20260506202620 | 54 | 313 | 0.0 | 0.0 | 0.00 | 0.05 | 0.05 | 98 | 1004.1 |
| 20260506202116 | 54 | 305 | 0.9 | 0.9 | 0.00 | 0.05 | 0.05 | 98 | 1004.0 |
| 20260506201613 | 54 | 330 | 0.9 | 0.9 | 0.00 | 0.05 | 0.05 | 98 | 1004.1 |
| 20260506201110 | 55 | 310 | 0.9 | 1.7 | 0.00 | 0.05 | 0.05 | 98 | 1004.1 |
| 20260506200606 | 55 | 313 | 1.7 | 1.7 | 0.07 | 0.05 | 0.05 | 98 | 1003.9 |
| 20260506195559 | 55 | 317 | 0.9 | 1.7 | 0.00 | 0.04 | 0.04 | 98 | 1004.3 |
| 20260506195056 | 55 | 311 | 0.9 | 0.9 | 0.05 | 0.04 | 0.04 | 98 | 1004.3 |
| 20260506194554 | 55 | 320 | 0.0 | 0.9 | 0.05 | 0.04 | 0.04 | 98 | 1004.5 |
| 20260506194050 | 55 | 304 | 2.6 | 4.3 | 0.07 | 0.03 | 0.03 | 98 | 1004.7 |
| 20260506193548 | 55 | 314 | 0.0 | 0.0 | 0.12 | 0.03 | 0.03 | 97 | 1004.6 |
| 20260506193045 | 55 | 311 | 0.0 | 0.0 | 0.05 | 0.02 | 0.02 | 96 | 1005.0 |
| 20260506192541 | 55 | 353 | 4.3 | 6.1 | 0.00 | 0.01 | 0.01 | 96 | 1005.1 |
| 20260506192037 | 54 | 300 | 2.6 | 4.3 | 0.07 | 0.01 | 0.01 | 96 | 1004.7 |
| 20260506191534 | 54 | 354 | 2.6 | 2.6 | 0.07 | 0.01 | 0.01 | 96 | 1004.8 |
| 20260506191030 | 54 | 320 | 1.7 | 2.6 | 0.00 | 0.00 | 0.00 | 95 | 1004.4 |
| 20260506190527 | 54 | 29 | 2.6 | 4.3 | 0.00 | 0.00 | 0.00 | 94 | 1004.7 |
| 20260506190024 | 54 | 287 | 3.5 | 4.3 | 0.00 | 0.00 | 0.00 | 94 | 1004.8 |
| 20260506185522 | 54 | 293 | 3.5 | 4.3 | 0.00 | 0.00 | 0.00 | 93 | 1004.9 |
| 20260506185018 | 54 | 16 | 2.6 | 2.6 | 0.00 | 0.00 | 0.00 | 92 | 1004.7 |
| 20260506184515 | 54 | 32 | 2.6 | 4.3 | 0.00 | 0.00 | 0.00 | 91 | 1004.3 |
| 20260506184013 | 54 | 340 | 2.6 | 5.2 | 0.00 | 0.00 | 0.00 | 91 | 1004.4 |
| 20260506183508 | 55 | 294 | 2.6 | 4.3 | 0.00 | 0.00 | 0.00 | 91 | 1004.3 |
| 20260506183006 | 54 | 18 | 0.9 | 0.9 | 0.00 | 0.00 | 0.00 | 90 | 1004.6 |
| 20260506182502 | 55 | 239 | 2.6 | 4.3 | 0.00 | 0.00 | 0.00 | 90 | 1004.5 |
| 20260506181959 | 54 | 329 | 1.7 | 1.7 | 0.00 | 0.00 | 0.00 | 90 | 1004.7 |
| 20260506181457 | 54 | 337 | 1.7 | 1.7 | 0.00 | 0.00 | 0.00 | 90 | 1004.5 |
| 20260506180954 | 55 | 331 | 1.7 | 2.6 | 0.00 | 0.00 | 0.00 | 90 | 1004.7 |
| 20260506180451 | 55 | 327 | 1.7 | 2.6 | 0.00 | 0.00 | 0.00 | 89 | 1004.7 |
| 20260506175947 | 55 | 283 | 2.6 | 4.3 | 0.00 | 0.00 | 0.00 | 89 | 1004.7 |
| 20260506175444 | 55 | 44 | 3.5 | 6.1 | 0.00 | 0.00 | 0.00 | 89 | 1004.6 |
| 20260506174940 | 55 | 287 | 1.7 | 2.6 | 0.00 | 0.00 | 0.00 | 89 | 1004.8 |
| 20260506174438 | 55 | 309 | 1.7 | 2.6 | 0.00 | 0.00 | 0.00 | 89 | 1004.9 |
| 20260506173935 | 55 | 314 | 1.7 | 2.6 | 0.00 | 0.00 | 0.00 | 89 | 1004.7 |
| 20260506173432 | 55 | 355 | 2.6 | 2.6 | 0.00 | 0.00 | 0.00 | 89 | 1004.9 |
| 20260506172929 | 55 | 325 | 2.6 | 5.2 | 0.00 | 0.00 | 0.00 | 89 | 1005.0 |
| 20260506172426 | 55 | 311 | 2.6 | 2.6 | 0.00 | 0.00 | 0.00 | 89 | 1004.9 |
| 20260506171917 | 55 | 343 | 0.9 | 1.7 | 0.00 | 0.00 | 0.00 | 89 | 1005.0 |
| 20260506171415 | 55 | 311 | 0.9 | 0.9 | 0.00 | 0.00 | 0.00 | 89 | 1005.1 |
| 20260506170912 | 55 | 18 | 1.7 | 1.7 | 0.00 | 0.00 | 0.00 | 90 | 1005.2 |
| 20260506170407 | 55 | 338 | 1.7 | 1.7 | 0.00 | 0.00 | 0.00 | 90 | 1005.2 |
| 20260506165901 | 55 | 346 | 2.6 | 4.3 | 0.00 | 0.00 | 0.00 | 90 | 1005.4 |
| 20260506165359 | 55 | 46 | 3.5 | 6.1 | 0.00 | 0.00 | 0.00 | 89 | 1005.4 |
| 20260506164855 | 56 | 50 | 1.7 | 2.6 | 0.00 | 0.00 | 0.00 | 88 | 1005.5 |
| 20260506164352 | 56 | 316 | 0.9 | 1.7 | 0.00 | 0.00 | 0.00 | 88 | 1005.5 |
| 20260506163850 | 56 | 2 | 2.6 | 5.2 | 0.00 | 0.00 | 0.00 | 88 | 1005.8 |
| 20260506163344 | 57 | 1 | 2.6 | 5.2 | 0.00 | 0.00 | 0.00 | 88 | 1005.7 |
| 20260506162839 | 57 | 50 | 3.5 | 6.1 | 0.00 | 0.00 | 0.00 | 87 | 1006.0 |
| 20260506162338 | 58 | 54 | 1.7 | 2.6 | 0.00 | 0.00 | 0.00 | 87 | 1006.2 |
| 20260506161835 | 58 | 46 | 2.6 | 4.3 | 0.00 | 0.00 | 0.00 | 87 | 1006.3 |
| 20260506161331 | 58 | 308 | 0.9 | 1.7 | 0.00 | 0.00 | 0.00 | 87 | 1006.2 |
| 20260506160824 | 59 | 302 | 1.7 | 1.7 | 0.00 | 0.00 | 0.00 | 85 | 1006.2 |
| 20260506160320 | 58 | 299 | 2.6 | 2.6 | 0.00 | 0.00 | 0.00 | 86 | 1006.2 |
| 20260506155818 | 58 | 30 | 2.6 | 4.3 | 0.00 | 0.00 | 0.00 | 86 | 1006.6 |
| 20260506155315 | 58 | 41 | 3.5 | 5.2 | 0.00 | 0.00 | 0.00 | 87 | 1006.5 |
| 20260506153428 | 57 | 341 | 4.3 | 5.2 | 0.00 | 0.00 | 0.00 | 89 | 1006.6 |
| 20260506152925 | 57 | 46 | 4.3 | 6.1 | 0.00 | 0.00 | 0.00 | 89 | 1006.8 |
| 20260506152421 | 57 | 272 | 3.5 | 4.3 | 0.00 | 0.00 | 0.00 | 88 | 1006.7 |
| 20260506151921 | 57 | 313 | 0.9 | 1.7 | 0.00 | 0.00 | 0.00 | 89 | 1006.7 |
| 20260506151417 | 57 | 292 | 3.5 | 4.3 | 0.00 | 0.00 | 0.00 | 88 | 1006.8 |
| 20260506150915 | 57 | 315 | 0.0 | 0.9 | 0.00 | 0.00 | 0.00 | 89 | 1006.6 |
| 20260506150410 | 57 | 286 | 3.5 | 5.2 | 0.00 | 0.00 | 0.00 | 89 | 1006.7 |
| 20260506145908 | 57 | 326 | 3.5 | 5.2 | 0.00 | 0.00 | 0.00 | 88 | 1006.8 |
| 20260506145403 | 57 | 337 | 2.6 | 2.6 | 0.00 | 0.00 | 0.00 | 88 | 1006.4 |
| 20260506144901 | 58 | 5 | 2.6 | 5.2 | 0.00 | 0.00 | 0.00 | 88 | 1006.4 |
| 20260506144357 | 58 | 57 | 2.6 | 6.1 | 0.00 | 0.00 | 0.00 | 87 | 1006.4 |
| 20260506143856 | 57 | 26 | 3.5 | 4.3 | 0.00 | 0.00 | 0.00 | 89 | 1006.5 |
| 20260506143353 | 57 | 333 | 0.9 | 1.7 | 0.00 | 0.00 | 0.00 | 89 | 1006.4 |
| 20260506142851 | 57 | 303 | 3.5 | 4.3 | 0.00 | 0.00 | 0.00 | 90 | 1006.5 |
| 20260506142349 | 56 | 53 | 5.2 | 7.8 | 0.00 | 0.00 | 0.00 | 90 | 1006.5 |
| 20260506141847 | 56 | 289 | 3.5 | 4.3 | 0.00 | 0.00 | 0.00 | 90 | 1006.6 |
| 20260506141345 | 56 | 280 | 2.6 | 2.6 | 0.00 | 0.00 | 0.00 | 91 | 1006.8 |
| 20260506140843 | 56 | 317 | 1.7 | 1.7 | 0.00 | 0.00 | 0.00 | 92 | 1006.9 |
| 20260506140339 | 56 | 352 | 1.7 | 1.7 | 0.00 | 0.00 | 0.00 | 91 | 1006.8 |
| 20260506135836 | 56 | 338 | 0.9 | 1.7 | 0.00 | 0.00 | 0.00 | 91 | 1006.9 |
| 20260506135333 | 56 | 332 | 0.9 | 0.9 | 0.00 | 0.00 | 0.00 | 92 | 1006.8 |
| 20260506134829 | 56 | 326 | 0.0 | 0.9 | 0.00 | 0.00 | 0.00 | 92 | 1007.0 |
| 20260506134325 | 55 | 320 | 2.6 | 2.6 | 0.00 | 0.00 | 0.00 | 92 | 1007.0 |
| 20260506133823 | 55 | 27 | 2.6 | 2.6 | 0.00 | 0.00 | 0.00 | 93 | 1006.9 |
| 20260506133319 | 55 | 37 | 1.7 | 2.6 | 0.00 | 0.00 | 0.00 | 93 | 1007.1 |
| 20260506132816 | 55 | 43 | 4.3 | 5.2 | 0.00 | 0.00 | 0.00 | 93 | 1006.8 |
| 20260506132313 | 55 | 341 | 1.7 | 2.6 | 0.00 | 0.00 | 0.00 | 92 | 1006.9 |
| 20260506131811 | 55 | 311 | 2.6 | 2.6 | 0.00 | 0.00 | 0.00 | 92 | 1006.9 |
| 20260506131307 | 55 | 317 | 0.0 | 0.9 | 0.00 | 0.00 | 0.00 | 91 | 1006.9 |
| 20260506130804 | 55 | 321 | 0.0 | 0.0 | 0.00 | 0.00 | 0.00 | 92 | 1006.8 |
| 20260506130301 | 55 | 288 | 1.7 | 1.7 | 0.00 | 0.00 | 0.00 | 92 | 1006.8 |
| 20260506125759 | 55 | 16 | 0.9 | 1.7 | 0.00 | 0.00 | 0.00 | 92 | 1006.8 |
| 20260506125257 | 55 | 290 | 2.6 | 2.6 | 0.00 | 0.00 | 0.00 | 92 | 1006.8 |
| 20260506124755 | 55 | 44 | 1.7 | 4.3 | 0.00 | 0.00 | 0.00 | 92 | 1006.9 |
| 20260506124252 | 55 | 306 | 0.9 | 0.9 | 0.00 | 0.00 | 0.00 | 92 | 1006.9 |
| 20260506123749 | 55 | 12 | 3.5 | 5.2 | 0.00 | 0.00 | 0.00 | 92 | 1006.8 |
| 20260506123248 | 55 | 319 | 1.7 | 1.7 | 0.00 | 0.00 | 0.00 | 91 | 1006.7 |
| 20260506122744 | 55 | 299 | 0.9 | 0.9 | 0.00 | 0.00 | 0.00 | 92 | 1006.8 |
| 20260506122241 | 55 | 326 | 2.6 | 4.3 | 0.00 | 0.00 | 0.00 | 91 | 1006.8 |
| 20260506121740 | 55 | 311 | 0.9 | 0.9 | 0.00 | 0.00 | 0.00 | 91 | 1007.0 |
| 20260506121236 | 55 | 318 | 0.9 | 0.9 | 0.00 | 0.00 | 0.00 | 91 | 1006.9 |
| 20260506120733 | 55 | 321 | 0.0 | 0.0 | 0.00 | 0.00 | 0.00 | 91 | 1007.3 |
| 20260506120231 | 55 | 332 | 1.7 | 1.7 | 0.00 | 0.00 | 0.00 | 91 | 1007.1 |
| 20260506115729 | 55 | 317 | 0.9 | 0.9 | 0.00 | 0.00 | 0.00 | 92 | 1006.9 |
| 20260506115227 | 55 | 321 | 1.7 | 1.7 | 0.00 | 0.00 | 0.00 | 92 | 1007.1 |
| 20260506114724 | 55 | 329 | 0.9 | 0.9 | 0.00 | 0.00 | 0.00 | 91 | 1007.2 |
| 20260506114222 | 55 | 314 | 0.0 | 0.9 | 0.00 | 0.00 | 0.00 | 92 | 1007.2 |
| 20260506113720 | 55 | 4 | 0.0 | 0.9 | 0.00 | 0.00 | 0.00 | 92 | 1007.4 |
| 20260506113217 | 55 | 308 | 1.7 | 1.7 | 0.00 | 0.00 | 0.00 | 92 | 1007.4 |
| 20260506112713 | 54 | 323 | 0.0 | 0.0 | 0.00 | 0.00 | 0.00 | 92 | 1007.4 |
| 20260506112211 | 54 | 311 | 0.0 | 0.0 | 0.00 | 0.00 | 0.00 | 92 | 1007.5 |
| 20260506111708 | 55 | 305 | 0.0 | 0.9 | 0.00 | 0.00 | 0.00 | 92 | 1007.2 |
| 20260506111207 | 54 | 313 | 0.9 | 1.7 | 0.00 | 0.00 | 0.00 | 92 | 1007.4 |
| 20260506110703 | 54 | 324 | 0.9 | 0.9 | 0.00 | 0.00 | 0.00 | 92 | 1007.2 |
| 20260506110201 | 54 | 312 | 0.0 | 0.0 | 0.00 | 0.00 | 0.00 | 92 | 1007.1 |
| 20260506105657 | 54 | 305 | 0.9 | 0.9 | 0.00 | 0.00 | 0.00 | 92 | 1007.2 |
| 20260506105154 | 54 | 341 | 1.7 | 1.7 | 0.00 | 0.00 | 0.00 | 92 | 1007.2 |
| 20260506104652 | 54 | 324 | 0.0 | 0.9 | 0.00 | 0.00 | 0.00 | 92 | 1007.3 |
| 20260506104149 | 54 | 325 | 0.9 | 1.7 | 0.00 | 0.00 | 0.00 | 93 | 1007.2 |
| 20260506103647 | 53 | 328 | 1.7 | 1.7 | 0.00 | 0.00 | 0.00 | 93 | 1007.1 |
| 20260506103143 | 53 | 332 | 1.7 | 1.7 | 0.00 | 0.00 | 0.00 | 93 | 1007.0 |
| 20260506102642 | 53 | 353 | 1.7 | 2.6 | 0.00 | 0.00 | 0.00 | 92 | 1007.1 |
| 20260506102139 | 53 | 320 | 1.7 | 2.6 | 0.00 | 0.00 | 0.00 | 93 | 1007.3 |
| 20260506101635 | 53 | 332 | 1.7 | 1.7 | 0.00 | 0.00 | 0.00 | 93 | 1007.0 |
| 20260506101132 | 52 | 317 | 0.9 | 1.7 | 0.00 | 0.00 | 0.00 | 93 | 1007.0 |
| 20260506100631 | 52 | 336 | 0.9 | 0.9 | 0.00 | 0.00 | 0.00 | 94 | 1006.8 |
| 20260506100128 | 52 | 328 | 0.9 | 0.9 | 0.00 | 0.00 | 0.00 | 94 | 1006.9 |